UAL7012 LEVC-LFBD

Flight info

Callsign UAL7012
Flight time N/A
Altitude 34000
Route SOPET N608 MATEX DCT OSLAP DCT USKAR DCT MOPAS DCT GIROM DCT AGN DCT SECHE R17 MIRBA
Aircraft B738/M-SDE2E3FGHIRWXY/LB1

Departure

Time 2026-05-05 01:10
Airport Valencia Airport (LEVC)

Arrival

Time N/A
Airport Bordeaux–Mérignac Airport (LFBD)
Time Latitude Longitude Altitude Speed Heading
2026-05-05 00:49 39.48975 -0.47242 199 ft 0 kts 20°
2026-05-05 01:02 39.48973 -0.47243 199 ft 2 kts 20°
2026-05-05 01:02 39.48957 -0.47250 202 ft 2 kts 16°
2026-05-05 01:03 39.48941 -0.47255 201 ft 2 kts
2026-05-05 01:03 39.48925 -0.47257 198 ft 2 kts 355°
2026-05-05 01:03 39.48909 -0.47252 199 ft 2 kts 327°
2026-05-05 01:03 39.48899 -0.47242 196 ft 1 kts 321°
2026-05-05 01:04 39.48903 -0.47246 194 ft 2 kts 322°
2026-05-05 01:05 39.48922 -0.47274 202 ft 6 kts 307°
2026-05-05 01:05 39.48948 -0.47333 197 ft 9 kts 294°
2026-05-05 01:05 39.48974 -0.47410 200 ft 10 kts 293°
2026-05-05 01:05 39.49006 -0.47498 203 ft 12 kts 297°
2026-05-05 01:06 39.49048 -0.47606 207 ft 15 kts 296°
2026-05-05 01:06 39.49045 -0.47743 207 ft 16 kts 258°
2026-05-05 01:06 39.49034 -0.47892 212 ft 18 kts 282°
2026-05-05 01:06 39.49087 -0.48043 210 ft 20 kts 296°
2026-05-05 01:07 39.49150 -0.48210 219 ft 21 kts 296°
2026-05-05 01:07 39.49213 -0.48375 216 ft 21 kts 296°
2026-05-05 01:07 39.49279 -0.48547 220 ft 21 kts 296°
2026-05-05 01:07 39.49344 -0.48716 224 ft 22 kts 296°
2026-05-05 01:08 39.49415 -0.48898 226 ft 23 kts 297°
2026-05-05 01:08 39.49490 -0.49096 228 ft 26 kts 296°
2026-05-05 01:08 39.49568 -0.49304 231 ft 25 kts 295°
2026-05-05 01:08 39.49645 -0.49507 239 ft 24 kts 296°
2026-05-05 01:09 39.49718 -0.49697 241 ft 23 kts 296°
2026-05-05 01:09 39.49785 -0.49876 247 ft 22 kts 295°
2026-05-05 01:09 39.49815 -0.50062 252 ft 22 kts 227°
2026-05-05 01:09 39.49671 -0.50048 257 ft 23 kts 153°
2026-05-05 01:10 39.49552 -0.49796 244 ft 63 kts 118°
2026-05-05 01:10 39.49236 -0.48959 226 ft 141 kts 114°
2026-05-05 01:10 39.48701 -0.47565 258 ft 199 kts 116°
2026-05-05 01:10 39.48055 -0.45937 901 ft 211 kts 121°
2026-05-05 01:11 39.47296 -0.44191 1271 ft 230 kts 120°
2026-05-05 01:11 39.46198 -0.42559 1445 ft 257 kts 149°
2026-05-05 01:11 39.44494 -0.41781 1702 ft 256 kts 163°
2026-05-05 01:11 39.43046 -0.40601 1821 ft 244 kts 127°
2026-05-05 01:12 39.42459 -0.38604 2028 ft 238 kts 101°
2026-05-05 01:12 39.41975 -0.36554 2190 ft 241 kts 116°
2026-05-05 01:12 39.41158 -0.34668 2385 ft 239 kts 121°
2026-05-05 01:12 39.40312 -0.32873 2619 ft 241 kts 122°
2026-05-05 01:13 39.39573 -0.30880 2770 ft 242 kts 98°
2026-05-05 01:13 39.39774 -0.28763 2994 ft 240 kts 65°
2026-05-05 01:13 39.40772 -0.27039 3203 ft 243 kts 37°
2026-05-05 01:13 39.42231 -0.25952 3433 ft 243 kts 22°
2026-05-05 01:14 39.43831 -0.25373 3620 ft 243 kts
2026-05-05 01:14 39.45526 -0.25057 3830 ft 243 kts
2026-05-05 01:14 39.47182 -0.24779 4023 ft 244 kts
2026-05-05 01:14 39.48865 -0.24485 4221 ft 244 kts
2026-05-05 01:15 39.50547 -0.24177 4419 ft 245 kts
2026-05-05 01:15 39.52237 -0.23855 4618 ft 245 kts
2026-05-05 01:15 39.53923 -0.23525 4817 ft 245 kts
2026-05-05 01:15 39.55615 -0.23188 5014 ft 246 kts
2026-05-05 01:16 39.57305 -0.22848 5215 ft 246 kts
2026-05-05 01:16 39.58426 -0.22621 5348 ft 246 kts
2026-05-05 01:16 39.60697 -0.22158 5616 ft 247 kts
2026-05-05 01:16 39.62398 -0.21811 5817 ft 248 kts
2026-05-05 01:17 39.64107 -0.21461 6025 ft 249 kts
2026-05-05 01:17 39.65826 -0.21109 6232 ft 250 kts
2026-05-05 01:17 39.67494 -0.20562 6397 ft 253 kts 29°
2026-05-05 01:17 39.68816 -0.19089 6636 ft 251 kts 46°
2026-05-05 01:18 39.70042 -0.17463 6826 ft 253 kts 44°
2026-05-05 01:18 39.71303 -0.15860 7027 ft 254 kts 44°
2026-05-05 01:18 39.72162 -0.14773 7153 ft 255 kts 44°
2026-05-05 01:18 39.73386 -0.13225 7353 ft 256 kts 44°
2026-05-05 01:19 39.75132 -0.11012 7626 ft 258 kts 44°
2026-05-05 01:19 39.75980 -0.09936 7755 ft 258 kts 44°
2026-05-05 01:19 39.77266 -0.08304 7960 ft 259 kts 44°
2026-05-05 01:19 39.78995 -0.06108 8224 ft 260 kts 44°
2026-05-05 01:20 39.79850 -0.05021 8355 ft 260 kts 44°
2026-05-05 01:20 39.81147 -0.03372 8555 ft 260 kts 44°
2026-05-05 01:20 39.82442 -0.01724 8757 ft 261 kts 44°
2026-05-05 01:20 39.83840 -0.00302 8910 ft 261 kts 21°
2026-05-05 01:21 39.85550 0.00316 9166 ft 258 kts 13°
2026-05-05 01:21 39.87351 0.00939 9360 ft 260 kts 15°
2026-05-05 01:21 39.89100 0.01587 9566 ft 262 kts 15°
2026-05-05 01:21 39.90855 0.02245 9769 ft 264 kts 15°
2026-05-05 01:22 39.92577 0.02890 9966 ft 265 kts 15°
2026-05-05 01:22 39.94409 0.03575 10176 ft 267 kts 15°
2026-05-05 01:22 39.96201 0.04244 10377 ft 268 kts 15°
2026-05-05 01:22 39.97980 0.04908 10568 ft 270 kts 15°
2026-05-05 01:23 39.99787 0.05582 10775 ft 271 kts 15°
2026-05-05 01:23 40.01606 0.06261 10972 ft 271 kts 15°
2026-05-05 01:23 40.03422 0.06938 11174 ft 272 kts 15°
2026-05-05 01:23 40.05242 0.07617 11373 ft 272 kts 15°
2026-05-05 01:24 40.07066 0.08298 11576 ft 273 kts 15°
2026-05-05 01:24 40.08894 0.08981 11772 ft 273 kts 15°
2026-05-05 01:24 40.10724 0.09665 11974 ft 273 kts 15°
2026-05-05 01:24 40.12536 0.10342 12173 ft 274 kts 15°
2026-05-05 01:25 40.14371 0.11029 12373 ft 275 kts 15°
2026-05-05 01:25 40.16249 0.11731 12489 ft 290 kts 15°
2026-05-05 01:25 40.18258 0.12483 12660 ft 310 kts 15°
2026-05-05 01:25 40.20402 0.13286 12829 ft 330 kts 15°
2026-05-05 01:26 40.22679 0.14139 12974 ft 349 kts 15°
2026-05-05 01:26 40.25080 0.15037 13146 ft 367 kts 15°
2026-05-05 01:26 40.27567 0.15964 13586 ft 374 kts 15°
2026-05-05 01:26 40.30082 0.16901 14196 ft 377 kts 15°
2026-05-05 01:27 40.32550 0.17822 14781 ft 380 kts 15°
2026-05-05 01:27 40.35143 0.18790 15322 ft 384 kts 15°
2026-05-05 01:27 40.37719 0.19753 15852 ft 387 kts 15°
2026-05-05 01:27 40.40327 0.20730 16411 ft 390 kts 15°
2026-05-05 01:28 40.42952 0.21713 16934 ft 393 kts 15°
2026-05-05 01:28 40.45594 0.22703 17465 ft 396 kts 15°
2026-05-05 01:28 40.48233 0.23693 17991 ft 398 kts 15°
2026-05-05 01:28 40.50910 0.24698 18477 ft 401 kts 15°
2026-05-05 01:29 40.53595 0.25707 18937 ft 405 kts 15°
2026-05-05 01:29 40.56291 0.26838 19397 ft 408 kts 22°
2026-05-05 01:29 40.58829 0.28481 19881 ft 410 kts 28°
2026-05-05 01:29 40.61363 0.30290 20334 ft 413 kts 28°
2026-05-05 01:30 40.63905 0.32098 20748 ft 416 kts 28°
2026-05-05 01:30 40.66462 0.33903 21155 ft 419 kts 28°
2026-05-05 01:30 40.68972 0.35662 21559 ft 421 kts 27°
2026-05-05 01:30 40.71638 0.37520 21979 ft 424 kts 27°
2026-05-05 01:31 40.74257 0.39341 22374 ft 426 kts 27°
2026-05-05 01:31 40.76884 0.41166 22769 ft 428 kts 27°
2026-05-05 01:31 40.79525 0.43001 23149 ft 430 kts 27°
2026-05-05 01:31 40.82179 0.44846 23513 ft 432 kts 27°
2026-05-05 01:32 40.84815 0.46681 23860 ft 435 kts 27°
2026-05-05 01:32 40.87433 0.48506 24197 ft 437 kts 27°
2026-05-05 01:32 40.90224 0.50454 24560 ft 439 kts 27°
2026-05-05 01:32 40.92926 0.52340 24889 ft 441 kts 27°
2026-05-05 01:33 40.95654 0.54247 25145 ft 445 kts 27°
2026-05-05 01:33 40.98400 0.56169 25444 ft 447 kts 27°
2026-05-05 01:33 41.01154 0.58098 25784 ft 448 kts 27°
2026-05-05 01:33 41.03909 0.60030 26137 ft 449 kts 27°
2026-05-05 01:34 41.06673 0.61969 26401 ft 451 kts 27°
2026-05-05 01:34 41.09450 0.63920 26657 ft 454 kts 27°
2026-05-05 01:34 41.12251 0.65883 26922 ft 455 kts 27°
2026-05-05 01:34 41.15155 0.67574 27166 ft 457 kts 18°
2026-05-05 01:35 41.18213 0.68770 27418 ft 459 kts 15°
2026-05-05 01:35 41.21303 0.69904 27624 ft 462 kts 15°
2026-05-05 01:35 41.24405 0.71051 27842 ft 464 kts 15°
2026-05-05 01:35 41.27517 0.72223 28101 ft 465 kts 15°
2026-05-05 01:36 41.30634 0.73417 28322 ft 467 kts 16°
2026-05-05 01:36 41.33761 0.74629 28497 ft 470 kts 16°
2026-05-05 01:36 41.36903 0.75857 28702 ft 472 kts 16°
2026-05-05 01:36 41.40055 0.77094 28930 ft 473 kts 16°
2026-05-05 01:37 41.43209 0.78333 29172 ft 473 kts 16°
2026-05-05 01:37 41.46362 0.79573 29508 ft 470 kts 16°
2026-05-05 01:37 41.49457 0.80791 30253 ft 458 kts 16°
2026-05-05 01:37 41.52482 0.81982 30908 ft 448 kts 16°
2026-05-05 01:38 41.55403 0.83133 31568 ft 438 kts 16°
2026-05-05 01:38 41.58320 0.84283 32198 ft 429 kts 16°
2026-05-05 01:38 41.64083 0.86557 32327 ft 439 kts 16°
2026-05-05 01:39 41.70015 0.88902 32412 ft 449 kts 16°
2026-05-05 01:39 41.76053 0.91294 32702 ft 452 kts 16°
2026-05-05 01:40 41.79073 0.92492 32929 ft 452 kts 16°
2026-05-05 01:40 41.82080 0.93687 33180 ft 452 kts 16°
2026-05-05 01:40 41.85098 0.94887 33380 ft 451 kts 16°
2026-05-05 01:40 41.88129 0.96093 33455 ft 455 kts 16°
2026-05-05 01:41 41.94184 0.98506 33705 ft 458 kts 16°
2026-05-05 01:41 41.97255 0.99732 33820 ft 460 kts 16°
2026-05-05 01:41 42.00268 1.00936 33924 ft 455 kts 16°
2026-05-05 01:42 42.06390 1.03386 34004 ft 457 kts 16°
2026-05-05 01:42 42.12534 1.05775 33996 ft 461 kts 11°
2026-05-05 01:43 42.18807 1.06306 33992 ft 459 kts 354°
2026-05-05 01:43 42.25265 1.05460 34009 ft 459 kts 354°
2026-05-05 01:44 42.31635 1.04704 33999 ft 460 kts 355°
2026-05-05 01:44 42.38038 1.04001 33995 ft 460 kts 355°
2026-05-05 01:45 42.44397 1.03302 33992 ft 462 kts 355°
2026-05-05 01:45 42.50825 1.02603 33993 ft 465 kts 355°
2026-05-05 01:46 42.57290 1.01903 34013 ft 468 kts 355°
2026-05-05 01:46 42.63816 1.01194 34001 ft 471 kts 355°
2026-05-05 01:47 42.70359 1.00481 33997 ft 473 kts 355°
2026-05-05 01:47 42.76891 0.99767 34013 ft 473 kts 355°
2026-05-05 01:48 42.83417 0.99053 34002 ft 463 kts 355°
2026-05-05 01:48 42.89731 0.98361 33988 ft 450 kts 355°
2026-05-05 01:49 42.96015 0.97670 34004 ft 456 kts 355°
2026-05-05 01:49 43.02360 0.96970 34012 ft 461 kts 355°
2026-05-05 01:50 43.08764 0.96263 33999 ft 462 kts 355°
2026-05-05 01:50 43.15167 0.95555 34000 ft 461 kts 355°
2026-05-05 01:51 43.21549 0.94848 33992 ft 460 kts 355°
2026-05-05 01:51 43.27891 0.94143 34000 ft 458 kts 355°
2026-05-05 01:52 43.34227 0.93438 34001 ft 456 kts 355°
2026-05-05 01:52 43.40535 0.92734 34001 ft 454 kts 355°
2026-05-05 01:53 43.46852 0.92028 34000 ft 453 kts 355°
2026-05-05 01:53 43.53118 0.91326 33993 ft 450 kts 355°
2026-05-05 01:54 43.59325 0.90629 33998 ft 445 kts 355°
2026-05-05 01:54 43.65501 0.89935 33704 ft 447 kts 355°
2026-05-05 01:55 43.68580 0.89588 33384 ft 441 kts 355°
2026-05-05 01:55 43.71593 0.89248 32943 ft 438 kts 355°
2026-05-05 01:55 43.74608 0.88907 32548 ft 434 kts 355°
2026-05-05 01:55 43.77611 0.88568 32135 ft 431 kts 355°
2026-05-05 01:56 43.80586 0.88231 31718 ft 428 kts 355°
2026-05-05 01:56 43.83543 0.87897 31303 ft 425 kts 355°
2026-05-05 01:56 43.86482 0.87552 30886 ft 422 kts 353°
2026-05-05 01:56 43.89357 0.86790 30470 ft 419 kts 343°
2026-05-05 01:57 43.92068 0.85366 30070 ft 415 kts 334°
2026-05-05 01:57 43.94664 0.83646 29679 ft 412 kts 334°
2026-05-05 01:57 43.97238 0.81938 29260 ft 409 kts 334°
2026-05-05 01:57 43.99801 0.80249 28846 ft 406 kts 334°
2026-05-05 01:58 44.02349 0.78582 28435 ft 403 kts 334°
2026-05-05 01:58 44.04881 0.76934 28028 ft 401 kts 334°
2026-05-05 01:58 44.07399 0.75301 27621 ft 398 kts 335°
2026-05-05 01:58 44.09869 0.73700 27232 ft 395 kts 335°
2026-05-05 01:59 44.12362 0.72084 26822 ft 393 kts 335°
2026-05-05 01:59 44.14834 0.70480 26419 ft 390 kts 335°
2026-05-05 01:59 44.17286 0.68888 26026 ft 388 kts 335°
2026-05-05 01:59 44.19716 0.67307 25628 ft 385 kts 334°
2026-05-05 02:00 44.22142 0.65728 25235 ft 383 kts 334°
2026-05-05 02:00 44.24554 0.64157 24840 ft 381 kts 334°
2026-05-05 02:00 44.26950 0.62595 24451 ft 378 kts 334°
2026-05-05 02:00 44.29329 0.61043 24061 ft 376 kts 334°
2026-05-05 02:01 44.30891 0.60022 23815 ft 374 kts 334°
2026-05-05 02:01 44.34015 0.57980 23299 ft 372 kts 334°
2026-05-05 02:01 44.36311 0.56477 22925 ft 369 kts 334°
2026-05-05 02:01 44.38671 0.54932 22534 ft 367 kts 334°
2026-05-05 02:02 44.40967 0.53427 22160 ft 365 kts 334°
2026-05-05 02:02 44.42500 0.52421 21911 ft 364 kts 334°
2026-05-05 02:02 44.45463 0.50477 21416 ft 361 kts 334°
2026-05-05 02:02 44.47055 0.49432 21156 ft 360 kts 334°
2026-05-05 02:03 44.50040 0.47470 20669 ft 357 kts 334°
2026-05-05 02:03 44.51558 0.46472 20419 ft 355 kts 334°
2026-05-05 02:03 44.53761 0.45022 20057 ft 353 kts 334°
2026-05-05 02:03 44.55984 0.43557 19691 ft 352 kts 334°
2026-05-05 02:04 44.58196 0.42098 19316 ft 350 kts 334°
2026-05-05 02:04 44.60392 0.40649 18954 ft 348 kts 334°
2026-05-05 02:04 44.62578 0.39204 18593 ft 346 kts 334°
2026-05-05 02:04 44.64746 0.37771 18237 ft 344 kts 334°
2026-05-05 02:05 44.66905 0.36344 17881 ft 342 kts 334°
2026-05-05 02:05 44.69062 0.34915 17524 ft 341 kts 334°
2026-05-05 02:05 44.71155 0.33459 17159 ft 339 kts 327°
2026-05-05 02:05 44.72839 0.31191 16831 ft 335 kts 303°
2026-05-05 02:06 44.73924 0.28313 16562 ft 333 kts 294°
2026-05-05 02:06 44.74867 0.25325 16234 ft 334 kts 294°
2026-05-05 02:06 44.75803 0.22334 15912 ft 334 kts 294°
2026-05-05 02:06 44.76741 0.19352 15623 ft 333 kts 294°
2026-05-05 02:07 44.77684 0.16378 15315 ft 333 kts 294°
2026-05-05 02:07 44.78629 0.13411 15007 ft 332 kts 294°
2026-05-05 02:07 44.79576 0.10447 14702 ft 331 kts 294°
2026-05-05 02:07 44.80521 0.07492 14398 ft 331 kts 294°
2026-05-05 02:08 44.81467 0.04537 14099 ft 331 kts 294°
2026-05-05 02:08 44.82395 0.01638 14230 ft 312 kts 294°
2026-05-05 02:08 44.83256 -0.01057 14269 ft 296 kts 294°
2026-05-05 02:08 44.84109 -0.03727 13599 ft 307 kts 294°
2026-05-05 02:09 44.85005 -0.06534 13020 ft 315 kts 294°
2026-05-05 02:09 44.85865 -0.09232 12657 ft 318 kts 294°
2026-05-05 02:09 44.86799 -0.12166 12370 ft 317 kts 294°
2026-05-05 02:09 44.87699 -0.14997 12084 ft 316 kts 294°
2026-05-05 02:10 44.88596 -0.17819 11796 ft 315 kts 294°
2026-05-05 02:10 44.89567 -0.20587 11505 ft 314 kts 300°
2026-05-05 02:10 44.90736 -0.23188 11163 ft 314 kts 303°
2026-05-05 02:10 44.91985 -0.25783 10605 ft 321 kts 304°
2026-05-05 02:11 44.93239 -0.28391 10192 ft 321 kts 303°
2026-05-05 02:11 44.94473 -0.30998 9920 ft 317 kts 303°
2026-05-05 02:11 44.95655 -0.33537 9935 ft 303 kts 303°
2026-05-05 02:11 44.96781 -0.35982 9876 ft 292 kts 303°
2026-05-05 02:12 44.97867 -0.38347 9812 ft 281 kts 302°
2026-05-05 02:12 44.99887 -0.42760 9593 ft 254 kts 302°
2026-05-05 02:12 45.00831 -0.44825 9314 ft 249 kts 302°
2026-05-05 02:13 45.01762 -0.46864 8954 ft 244 kts 302°
2026-05-05 02:13 45.02672 -0.48858 8431 ft 246 kts 302°
2026-05-05 02:13 45.03524 -0.50942 7926 ft 245 kts 289°
2026-05-05 02:13 45.03608 -0.53302 7410 ft 243 kts 253°
2026-05-05 02:14 45.02779 -0.55346 6951 ft 240 kts 224°
2026-05-05 02:14 45.01366 -0.56558 6450 ft 240 kts 195°
2026-05-05 02:14 44.99723 -0.56653 5969 ft 239 kts 166°
2026-05-05 02:14 44.98229 -0.55627 5488 ft 238 kts 141°
2026-05-05 02:15 44.97036 -0.54075 5194 ft 229 kts 135°
2026-05-05 02:15 44.95964 -0.52521 5070 ft 214 kts 134°
2026-05-05 02:15 44.94956 -0.51052 4875 ft 203 kts 134°
2026-05-05 02:15 44.93997 -0.49660 4654 ft 196 kts 134°
2026-05-05 02:16 44.93037 -0.48277 4297 ft 205 kts 135°
2026-05-05 02:16 44.92009 -0.46801 4200 ft 211 kts 135°
2026-05-05 02:16 44.90961 -0.45307 4190 ft 216 kts 135°
2026-05-05 02:16 44.89916 -0.43822 4195 ft 216 kts 135°
2026-05-05 02:17 44.88844 -0.42298 4186 ft 215 kts 135°
2026-05-05 02:17 44.87787 -0.40805 4188 ft 215 kts 135°
2026-05-05 02:17 44.86731 -0.39318 4187 ft 214 kts 135°
2026-05-05 02:17 44.85623 -0.37922 4162 ft 214 kts 152°
2026-05-05 02:18 44.84203 -0.37589 4141 ft 209 kts 194°
2026-05-05 02:18 44.82823 -0.38208 4192 ft 209 kts 198°
2026-05-05 02:18 44.81447 -0.38792 4042 ft 204 kts 197°
2026-05-05 02:18 44.80106 -0.39349 3873 ft 197 kts 197°
2026-05-05 02:19 44.78828 -0.39883 3674 ft 190 kts 197°
2026-05-05 02:19 44.77654 -0.40656 3461 ft 187 kts 225°
2026-05-05 02:19 44.77181 -0.42287 3366 ft 186 kts 273°
2026-05-05 02:19 44.77468 -0.44080 3200 ft 190 kts 284°
2026-05-05 02:20 44.77651 -0.45921 3050 ft 189 kts 276°
2026-05-05 02:20 44.77911 -0.47738 3021 ft 189 kts 285°
2026-05-05 02:20 44.78270 -0.49459 3021 ft 176 kts 286°
2026-05-05 02:20 44.78613 -0.51101 2846 ft 170 kts 286°
2026-05-05 02:21 44.78945 -0.52694 2652 ft 169 kts 286°
2026-05-05 02:21 44.79271 -0.54272 2422 ft 170 kts 286°
2026-05-05 02:21 44.79597 -0.55847 2202 ft 166 kts 287°
2026-05-05 02:21 44.79917 -0.57375 1983 ft 159 kts 286°
2026-05-05 02:22 44.80224 -0.58866 1782 ft 160 kts 286°
2026-05-05 02:22 44.80533 -0.60353 1573 ft 156 kts 286°
2026-05-05 02:22 44.80835 -0.61806 1364 ft 154 kts 286°
2026-05-05 02:22 44.81138 -0.63262 1163 ft 155 kts 286°
2026-05-05 02:23 44.81442 -0.64719 949 ft 155 kts 286°
2026-05-05 02:23 44.81578 -0.65376 858 ft 154 kts 286°